Deer Lake, Canada

8:19 AM NDT on September 24, 2017 (GMT -0230)
Deer Lake

Weather History for CYDF - September, 2013

Change the Weather History Date:

Saturday, September 14, 2013

  Actual Average Record
Temperature  
Mean Temperature 57 °F -  
Max Temperature 66 °F 55 °F 79 °F (2012)
Min Temperature 48 °F 39 °F 32 °F (1996)
Degree Days  
Heating Degree Days 8    
Growing Degree Days 7 (Base 50)    
Moisture  
Dew Point 53 °F    
Average Humidity 96    
Maximum Humidity 100    
Minimum Humidity 83    
Precipitation  
Precipitation 0.43 in 0.13 in - ()
Sea Level Pressure  
Sea Level Pressure 29.95 in    
Wind  
Wind Speed 9 mph ()    
Max Wind Speed 18 mph    
Max Gust Speed 25 mph    
Visibility 8.8 miles    
Events Rain    
Averages and records for this station are not official NWS values.
T = Trace of Precipitation, MM = Missing Value Source: Averaged Metar Reports

Daily Weather History Graph

Daily Weather History Graph

Search for Another Location

Airport or City:

Trip Planner

Search our weather history database for the weather conditions in past years. The results will help you decide how hot, cold, wet, or windy it might be!

Date:

Astronomy

Sep. 14, 2013 Rise Set
Actual Time 6:54 AM NDT 7:34 PM NDT
Civil Twilight 6:22 AM NDT 8:06 PM NDT
Nautical Twilight 5:44 AM NDT 8:44 PM NDT
Astronomical Twilight 5:04 AM NDT 9:24 PM NDT
Moon 4:31 PM NDT (9/14) 12:58 AM NDT (9/14)
Length of Visible Light 13h 43m
Length of Day
12h 39m
Waxing Gibbous, 71% of the Moon is Illuminated
Sep 14
Waxing Gibbous
Sep 19
Full
Sep 27
Last Quarter
Oct 4
New
Oct 11
First Quarter

Hourly Weather History & Observations

Time (NDT) Temp. Dew Point Humidity Pressure Visibility Wind Dir Wind Speed Gust Speed Precip Events Conditions
12:20 AM 69.8 °F 64.4 °F 83% 29.83 in 12.0 mi SSW 10.4 mph - N/A Rain Light Rain Showers
12:30 AM 68.0 °F 64.4 °F 88% 29.83 in 12.0 mi SSW 9.2 mph - N/A Rain Light Rain Showers
1:30 AM 68.0 °F 66.2 °F 94% 29.82 in 12.0 mi South 8.1 mph - N/A Rain Light Rain Showers
2:30 AM 66.2 °F 64.4 °F 94% 29.81 in 12.0 mi Variable 2.3 mph - N/A Rain Light Rain Showers
3:30 AM 65 °F 65 °F 100% 29.81 in 12 mi North 2.3 mph - - Rain Light Rain Showers
3:30 AM 66.2 °F 64.4 °F 94% 29.81 in 12.0 mi North 3.5 mph - N/A Rain Light Rain Showers
4:30 AM 64.4 °F 64.4 °F 100% 29.79 in 10.0 mi NE 6.9 mph - N/A Rain Light Rain Showers
5:30 AM 66.2 °F 66.2 °F 100% 29.81 in 10.0 mi NE 4.6 mph - N/A Rain Light Rain Showers
6:30 AM 66.2 °F 66.2 °F 100% 29.82 in 10.0 mi NNE 4.6 mph - N/A Rain Light Rain Showers
7:30 AM 53.6 °F 53.6 °F 100% 29.87 in 8.0 mi NNE 15.0 mph 23.0 mph N/A Rain Light Rain Showers
8:08 AM 51.8 °F 50.0 °F 94% 29.90 in 8.0 mi NNE 13.8 mph 20.7 mph N/A   Overcast
8:30 AM 51.8 °F 50.0 °F 94% 29.91 in 10.0 mi North - - N/A   Overcast
9:16 AM 50.0 °F 48.2 °F 94% 29.94 in 8.0 mi NE 17.3 mph 25.3 mph N/A   Light Drizzle
9:30 AM 49 °F 48 °F 96% 29.96 in 6 mi NE 15.0 mph - - Rain Light Drizzle
9:30 AM 48.2 °F 48.2 °F 100% 29.95 in 6.0 mi NE 13.8 mph 21.9 mph N/A   Light Drizzle
10:30 AM 48.2 °F 48.2 °F 100% 29.99 in 4.0 mi NE 15.0 mph - N/A   Light Drizzle
11:30 AM 50.0 °F 48.2 °F 94% 30.01 in 4.0 mi NE 18.4 mph 25.3 mph N/A   Light Drizzle
12:30 PM 50.0 °F 48.2 °F 94% 30.02 in 8.0 mi NE 13.8 mph 23.0 mph N/A   Light Drizzle
1:30 PM 50.0 °F 48.2 °F 94% 30.04 in 10.0 mi NE 17.3 mph 25.3 mph N/A   Overcast
2:30 PM 50.0 °F 48.2 °F 94% 30.04 in 10.0 mi NNE 10.4 mph 18.4 mph N/A   Overcast
3:30 PM 50 °F 48 °F 92% 30.05 in 10 mi Calm Calm - -   Partly Cloudy
3:30 PM 50.0 °F 48.2 °F 94% 30.05 in 10.0 mi NNE 10.4 mph - N/A   Overcast
3:58 PM 50.0 °F 48.2 °F 94% 30.05 in 6.0 mi NE 13.8 mph 20.7 mph N/A Rain Light Rain Showers
4:30 PM 48.2 °F 48.2 °F 100% 30.04 in 6.0 mi NNE 12.7 mph 19.6 mph N/A Rain Light Rain Showers
5:30 PM 48.2 °F 48.2 °F 100% 30.04 in 6.0 mi NNE 10.4 mph - N/A Rain Light Rain Showers
6:30 PM 48.2 °F 48.2 °F 100% 30.04 in 6.0 mi NE 15.0 mph - N/A Rain Rain Showers
7:30 PM 48.2 °F 48.2 °F 100% 30.04 in 5.0 mi NE 6.9 mph - N/A Rain Light Rain Showers
8:30 PM 48.2 °F 46.4 °F 93% 30.04 in 8.0 mi NNE 9.2 mph - N/A Rain Light Rain Showers
9:30 PM 48 °F 47 °F 97% 30.01 in 10 mi NNE 8.1 mph - - Rain Light Rain Showers
9:30 PM 48.2 °F 48.2 °F 100% 30.01 in 10.0 mi NNE 8.1 mph - N/A Rain Light Rain Showers
10:30 PM 48.2 °F 48.2 °F 100% 30.00 in 10.0 mi NE 10.4 mph - N/A Rain Light Rain Showers
11:30 PM 48.2 °F 48.2 °F 100% 29.98 in 8.0 mi NE 9.2 mph - N/A Rain Light Rain Showers
11:51 PM 48.2 °F 48.2 °F 100% 29.97 in 10.0 mi NE 9.2 mph - N/A Rain Light Rain Showers